Details From FGSL - MALABO
To FPST - SAO TOME INTL
Flight Number -
Tags generated
Created
Modified
Stats Distance 236 nm / 437 km
Max Altitude 24,500 ft / 7,468 m
Waypoints 7
Social Downloads 0
Likes 0
Share VATSIM

Download

Looking for another format? Having issues loading an existing format? Contact us
Advertisement - Login to hide

Notes

Basic altitude profile: - Ascent Rate: 2500ft/min - Ascent Speed: 250kts - Cruise Altitude: 35000ft - Cruise Speed: 420kts - Descent Rate: 1500ft/min - Descent Speed: 250kts Options: - Use NATs: yes - Use PACOTS: yes - Use low airways: yes - Use high airways: yes

Route

FGSL GEBRO B737 STM FPST

ID Type Via Altitude Latitude Longitude Leg Dist Tot Dist Heading (true) Name
O FGSL APT - 0 ft / 0 m 3.75527˚ 8.70872˚ - 0 nm - MALABO
GEBRO FIX - 16,900 ft / 5,151 m 3.04472˚ 8.26944˚ 50 nm 50 nm 212° / 212° -
RITIL FIX B737 (AWY-LO) 24,500 ft / 7,468 m 2.23417˚ 7.76528˚ 57 nm 107 nm 212° / 212° -
PR NDB B737 (AWY-LO) 18,800 ft / 5,730 m 1.66600˚ 7.41236˚ 40 nm 147 nm 212° / 212° PRINCIPE NDB
IPIPI FIX B737 (AWY-LO) 7,000 ft / 2,134 m 0.77697˚ 6.93059˚ 60 nm 208 nm 208° / 208° -
STM VOR B737 (AWY-LO) 7,000 ft / 2,134 m 0.37845˚ 6.71706˚ 27 nm 235 nm 208° / 208° SAO TOME VOR-DME
O FPST APT - 0 ft / 0 m 0.37817˚ 6.71215˚ 0 nm 235 nm 267° / 267° SAO TOME INTL

Altitude Profile

Advertisement - Login to hide

Weather


0- 5 10 15 20 25 30 35+ Temperature / ° C

Clouds and Precipitation
Forecast for 2018-05-20 18:00 UTC. Updated an hour ago

Ground ~20,000 ft ~40,000 ft Winds

FGSL

Details ICAO FGSL (SSG)
Name MALABO
Region Equatorial Guinea
Timezone Africa/Malabo (UTC+1.0)
Stats Elevation 76 ft / 23 m (AMSL)
Location 3.755267° 8.708717°
Runways 1
Magnetic Variation 1.367° W

METAR

FGSL 201700Z 24009KT 9999 FEW010 27/23 Q1010 NOSIG

Decode

TAF

TAF FGSL 201700Z 2018/2124 24008KT 9999 SCT010 FEW020CB PROB30 TEMPO 2022/2106 TS BKN010 FEW020CB TEMPO 2114/2118 BKN010 FEW020CB

Decode

Departure Runways

ID Width Length Bearing (true) Bearing (mag) Surface Threshold Offset Overrun Length
05 151 ft / 46 m 9,642 ft / 2,939 m 41.72° 43.09° Concrete 0 ft / 0 m 0 ft / 0 m
23 151 ft / 46 m 9,642 ft / 2,939 m 221.72° 223.09° Concrete 0 ft / 0 m 161 ft / 49 m

FPST

Details ICAO FPST (TMS)
Name SAO TOME INTL
Region São Tomé and Príncipe
Timezone Africa/Sao_Tome (UTC+0.0)
Stats Elevation 33 ft / 10 m (AMSL)
Location 0.378175° 6.712152°
Runways 1
Magnetic Variation 2.714° W

METAR

Not found

TAF

TAF FPST 201000Z 2012/2118 27006KT 9999 TS FEW020CB BKN030 OVC100 PROB30 TEMPO 2013/2019 5000 TSRA SCT010 FEW015CB OVC030

Decode

Destination Runways

ID Width Length Bearing (true) Bearing (mag) Surface Threshold Offset Overrun Length
11 148 ft / 45 m 7,305 ft / 2,227 m 103.60° 106.31° Asphalt 200 ft / 61 m 0 ft / 0 m
29 148 ft / 45 m 7,305 ft / 2,227 m 283.60° 286.31° Asphalt 200 ft / 61 m 0 ft / 0 m

Popular Alternatives